Location: All Nations United Methodist Church
(33.0215°N, 96.7483°W)
Time: 14:48:09
(UTC+00:00)

Cosmos 1315 Rocket - Pass Details

Date: 24 January 2021
Orbit: 530 x 567 km, 81.2° (Epoch: 07 March)

Event Time Altitude Azimuth Distance (km) Brightness Sun altitude
Rises 12:18:10 0° 180° (S) 2,663 6.5 -14.5°
Reaches altitude 10° 12:20:19 10° 177° (S) 1,774 5.6 -14.1°
Maximum altitude 12:24:10 63° 96° (E) 594 3.2 -13.3°
Drops below altitude 10° 12:28:02 10° 15° (NNE) 1,781 5.4 -12.5°
Sets 12:30:12 0° 12° (NNE) 2,675 6.3 -12.1°
